Regional Weather Roundup
Issued by NWS

Home | Current Version | Previous Version | Text Only | Print | Product List | Glossary Off
Versions: 1 2 3 4 5 6 7 8 9 10 11 12 13 14 15 16 17 18 19 20 21 22 23 24 25 26 27

000
ASUS45 KSLC 191310
RWRUT

UTAH REGIONAL WEATHER ROUNDUP
NATIONAL WEATHER SERVICE SALT LAKE CITY UT
700 AM MDT TUE SEP 19 2017

UTZ001>011-023>025-191400-

NORTHERN UTAH

CITY           SKY/WX    TMP DP  RH WIND       PRES   REMARKS
BRIGHAM CITY   CLOUDY    47  40  77 N14       29.89R
DUGWAY         LGT RAIN  56  46  67 N13       29.79
HILL AFB       LGT RAIN  46  43  89 N14       29.85R
LOGAN          RAIN      45  41  86 N9        29.89R
OGDEN          LGT RAIN  46  42  86 N18G28    29.83R
SALT LAKE CITY HVY RAIN  50  48  93 N24G33    29.83R
TOOELE VALLEY  RAIN      52  50  93 N20       29.85R
WENDOVER       MOCLDY    55  36  48 NW6       29.84R
HEBER CITY     LGT RAIN  59  36  41 SW22G31   29.75F
WEST JORDAN    CLOUDY    51  51 100 NW17      29.83R

$$

UTZ011>015-024>027-191400-

CENTRAL/NORTHEAST UTAH

CITY           SKY/WX    TMP DP  RH WIND       PRES   REMARKS
PROVO AIRPORT  CLOUDY    66  45  45 NW12      29.78R
MOAB/CANYONLAN MOCLDY    68  25  19 S12G22    29.79S
DELTA          PTCLDY    61  36  39 S18       29.80R
PRICE          PTCLDY    51  35  54 NE8       29.84R
ROOSEVELT      CLOUDY    54  37  54 SW9       29.77F
VERNAL         CLOUDY    59  35  40 SW8       29.76R

$$

UTZ013>016-019>022-027-191400-

SOUTHERN UTAH

CITY           SKY/WX    TMP DP  RH WIND       PRES   REMARKS
BRYCE CANYON   MOCLDY    44  32  62 SE6       30.04R
CEDAR CITY     MOCLDY    61  36  39 S24G31    29.89R
MILFORD        MOCLDY    60  37  42 S14       29.85R
ST GEORGE      CLOUDY    68  37  32 S13       29.81R
HANKSVILLE     MOCLDY    68  32  26 SW18G25   29.84S
BLANDING         N/A     47  21  36 NE6       30.07S

$$

REGIONAL REPORTS     COLORADO/ARIZONA

CITY           SKY/WX    TMP DP  RH WIND       PRES   REMARKS
CRAIG, CO      CLOUDY    61  20  20 SW15G22   29.82S
GRAND JUNCTION CLOUDY    62  24  23 SE15      29.84R
RIFLE, CO      CLOUDY    61  22  22 W3        29.86R
MONTROSE, CO   CLOUDY    54  29  38 SE3       29.96F
CORTEZ, CO     CLOUDY    40  28  62 E6        30.05R
PAGE, AZ       MOCLDY    63  25  23 SE5       29.89S
GRAND CANYON   PTCLDY    49  26  41 S7        30.08S
KINGMAN, AZ    CLEAR     70  46  42 S15       29.88F
FLAGSTAFF, AZ  PTCLDY    50  25  37 W10       30.12S

$$

REGIONAL REPORTS    NEVADA/IDAHO/WYOMING

CITY           SKY/WX    TMP DP  RH WIND       PRES   REMARKS
LAS VEGAS, NV  MOCLDY    75  37  25 S18G26    29.72S
ELY, NY        CLEAR     50  34  54 W8        29.92R
ELKO, NV       MOCLDY    49  34  56 S6        29.90R
POCATELLO, ID  CLOUDY    43  37  79 SW9       29.84R
BURLEY, ID     CLOUDY    45  37  73 W14       29.86R
FORT BRIDGER,    N/A     46  45  93 W20       29.83S
EVANSTON, WY   CLOUDY    45  44  97 W12       29.84R
ROCK SPRINGS,  CLOUDY    45  38  76 SW6       29.81F
KEMMERER, WY   LGT RAIN  41  39  93 W22G28    29.82S

$$




USA.gov is the U.S. government's official web portal to all federal, state and local government web resources and services.